Location: Newark
(41.2758°N, 92.6808°W)
Time: 03:30:23
(UTC+00:00)

Envisat - Pass Details

Date: 28 September 2019
Orbit: 764 x 766 km, 98.1° (Epoch: 17 October)

Event Time Altitude Azimuth Distance (km) Brightness Sun altitude
Rises 01:02:23 0° 190° (S) 3,217 6.3 -12.6°
Reaches altitude 10° 01:04:53 10° 200° (SSW) 2,296 5.6 -13.1°
Maximum altitude 01:09:25 33° 264° (W) 1,273 4.9 -13.9°
Drops below altitude 10° 01:13:59 10° 328° (NNW) 2,310 6.1 -14.7°
Sets 01:16:32 0° 338° (NNW) 3,241 6.7 -15.2°
